Location: ????????
(54.6123°N, 39.2099°E)
Time: 02:41:02
(UTC+00:00)

Cosmos 1110 Rocket - Pass Details

Date: 19 May 2025
Orbit: 748 x 777 km, 74.0° (Epoch: 15 June)

Event Time Altitude Azimuth Distance (km) Brightness Sun altitude
Rises 22:16:11 0° 332° (NNW) 3,273 8.1 -14.4°
Reaches altitude 10° 22:18:35 10° 331° (NNW) 2,340 7.2 -14.4°
Maximum altitude 22:23:54 80° 246° (WSW) 793 4.0 -14.2°
Enters shadow 22:28:28 14° 160° (SSE) 2,043 5.7 -14.0°
